Home   Weather   Vista   Past weeks

Flag for USA Past Weather in Vista, California, USA — Yesterday and Last 2 Weeks

Now
53 °F

Overcast.


Feels Like: 53 °F
Forecast: 45 / 63 °F
Wind: No wind

Location: McClellan-Palomar Airport

Current Time: Jan 16, 2017 at 7:23:25 am

Latest Report: Jan 16, 2017 at 6:53 am


Visibility: 10 mi

Pressure: 30.05 "Hg

Humidity: 93%

Dew Point: 51 °F

Location of VistaLocation

Past Weather in Vista — Graph

°F

Vista Temperature Yesterday

Maximum temperature yesterday: 61 °F (at 11:53 am)
Minimum temperature yesterday: 51 °F (at 12:53 am)
Average temperature yesterday: 56 °F

High & Low Weather Summary for the Past Weeks

 TemperatureHumidityPressure
High75 °F (Jan 8, 11:53 am)100% (Jan 5, 6:19 am)30.19 "Hg (Jan 5, 6:19 am)
Low44 °F (Jan 1, 5:53 am)31% (Jan 7, 11:53 am)29.89 "Hg (Jan 1, 5:53 am)
Average56 °F87%30.05 "Hg
* Reported Jan 1 5:53 am — Jan 16 5:53 am, Vista, Weather by CustomWeather, © 2017

Note: Actual official high and low records may vary slightly from our data, if they occured in-between our weather recording intervals... More about our weather records

Advertising

Vista Weather History for the Previous 24 Hours

Scroll right to see more
 ConditionsComfort  
Time TempWeatherWind HumidityBarometerVisibility
5:53 am
Mon, Jan 16
52 °FPassing clouds.No wind97%30.03 "Hg10 mi
4:53 am51 °FOvercast.No wind96%30.02 "Hg9 mi
3:53 am51 °FClear.5 mph96%30.03 "Hg9 mi
2:53 am51 °FPassing clouds.3 mph92%30.04 "Hg9 mi
2:30 am52 °FPartly cloudy.No wind93%30.05 "Hg9 mi
1:53 am52 °FOvercast.No wind93%30.04 "Hg9 mi
12:53 am51 °FMostly cloudy.No wind96%30.05 "Hg9 mi
12:23 am51 °FPassing clouds.No wind92%30.05 "Hg9 mi
11:53 pm
Sun, Jan 15
51 °FClear.No wind96%30.05 "Hg9 mi
10:53 pm52 °FClear.No wind97%30.06 "Hg10 mi
9:53 pm54 °FClear.No wind93%30.06 "Hg10 mi
8:53 pm54 °FPassing clouds.3 mph93%30.06 "Hg9 mi
7:53 pm56 °FOvercast.No wind90%30.05 "Hg10 mi
6:53 pm56 °FOvercast.No wind90%30.05 "Hg10 mi
5:53 pm57 °FOvercast.No wind87%30.03 "Hg10 mi
5:16 pm57 °FOvercast.6 mph87%30.03 "Hg10 mi
5:02 pm58 °FMostly cloudy.6 mph84%30.03 "Hg10 mi
3:53 pm59 °FPassing clouds.8 mph81%30.02 "Hg10 mi
2:53 pm60 °FOvercast.9 mph75%30.02 "Hg10 mi
1:53 pm61 °FOvercast.13 mph75%30.02 "Hg10 mi
1:31 pm60 °FMore clouds than sun.7 mph78%30.02 "Hg10 mi
1:04 pm61 °FMostly cloudy.10 mph75%30.03 "Hg10 mi
11:53 am61 °FOvercast.6 mph72%30.04 "Hg10 mi
10:53 am60 °FOvercast.9 mph75%30.08 "Hg10 mi
10:13 am59 °FOvercast.10 mph78%30.09 "Hg10 mi
10:04 am59 °FMostly cloudy.10 mph75%30.09 "Hg10 mi
9:53 am58 °FOvercast.10 mph78%30.09 "Hg10 mi
8:53 am57 °FOvercast.7 mph81%30.07 "Hg10 mi
8:31 am55 °FMore clouds than sun.5 mph87%30.07 "Hg10 mi
7:53 am54 °FOvercast.3 mph86%30.05 "Hg10 mi
Weather by CustomWeather, © 2017

See weather overviewHow to use our weather pages